When you browse on this site, cookies collect data to enhance your experience and personalize the content and advertising you see.
Visit our Privacy Policy to learn more. By continuing to use the site, you agree to this use of cookies and data.
  • In Sweden
  • List of Countries
  • For 7 days
  • Water Temperature
  • Satellite Maps
  • Weather Map
  • Weather Widgets
  • user-avatar
    Login

    Hourly Weather Lubosnia

    Today, 23 February, Saturday

    Time Temperature Precipitation Wind Pressure Humidity
    00:00 -5°C° 0 mm 4 mps 766 mmHg 41%
    01:00 -5°C° 0 mm 4 mps 767 mmHg 37%
    02:00 -5°C° 0 mm 4 mps 767 mmHg 37%
    03:00 -5°C° 0 mm 3 mps 767 mmHg 38%
    04:00 -5°C° 0 mm 3 mps 767 mmHg 38%
    05:00 -5°C° 0 mm 2 mps 767 mmHg 39%
    06:00 -5°C° 0 mm 2 mps 767 mmHg 40%
    07:00 -3°C° 0 mm 1 mps 768 mmHg 41%
    08:00 -5°C° 0 mm 2 mps 768 mmHg 39%
    09:00 -4°C° 0 mm 2 mps 768 mmHg 37%
    10:00 -4°C° 0 mm 2 mps 768 mmHg 35%
    11:00 -1°C° 0 mm 1 mps 768 mmHg 33%
    12:00 0°C° 0 mm 1 mps 767 mmHg 31%
    13:00 -1°C° 0 mm 0 mps 768 mmHg 30%
    14:00 -1°C° 0 mm 0 mps 767 mmHg 30%
    15:00 -1°C° 0 mm 0 mps 767 mmHg 29%
    16:00 0°C° 0 mm 1 mps 766 mmHg 29%
    17:00 -1°C° 0 mm 0 mps 766 mmHg 32%
    18:00 -2°C° 0 mm 0 mps 766 mmHg 34%
    19:00 -2°C° 0 mm 0 mps 766 mmHg 37%
    20:00 -1°C° 0 mm 1 mps 766 mmHg 37%
    21:00 -1°C° 0 mm 1 mps 765 mmHg 37%
    22:00 -1°C° 0 mm 1 mps 765 mmHg 37%
    23:00 -3°C° 0 mm 2 mps 765 mmHg 36%

    Tomorrow, 24 February, Sunday

    Time Temperature Precipitation Wind Pressure Humidity
    00:00 -3°C° 0 mm 2 mps 765 mmHg 35%
    01:00 -3°C° 0 mm 2 mps 765 mmHg 35%
    02:00 -3°C° 0 mm 2 mps 764 mmHg 35%
    03:00 -3°C° 0 mm 2 mps 764 mmHg 35%
    04:00 -3°C° 0 mm 2 mps 763 mmHg 35%
    05:00 -2°C° 0 mm 2 mps 763 mmHg 34%
    06:00 -2°C° 0 mm 2 mps 763 mmHg 34%
    07:00 -2°C° 0 mm 2 mps 763 mmHg 34%
    08:00 -2°C° 0 mm 3 mps 763 mmHg 33%
    09:00 -1°C° 0 mm 3 mps 763 mmHg 33%
    10:00 -1°C° 0 mm 3 mps 762 mmHg 32%
    11:00 0°C° 0 mm 3 mps 762 mmHg 33%
    12:00 +1°C° 0 mm 3 mps 762 mmHg 35%
    13:00 +2°C° 0 mm 3 mps 762 mmHg 36%
    14:00 +2°C° 0 mm 3 mps 762 mmHg 40%
    15:00 +2°C° 0 mm 3 mps 761 mmHg 43%
    16:00 +2°C° 0 mm 3 mps 761 mmHg 47%
    17:00 +1°C° 0 mm 3 mps 761 mmHg 50%
    18:00 0°C° 0 mm 3 mps 761 mmHg 53%
    19:00 0°C° 0 mm 3 mps 761 mmHg 55%
    20:00 -1°C° 0 mm 3 mps 761 mmHg 57%
    21:00 -1°C° 0 mm 3 mps 761 mmHg 58%
    22:00 -1°C° 0 mm 3 mps 761 mmHg 59%
    23:00 -1°C° 0 mm 3 mps 761 mmHg 61%

    Day after tomorrow, 25 February, Monday

    Time Temperature Precipitation Wind Pressure Humidity
    00:00 -1°C° 0 mm 3 mps 761 mmHg 62%
    01:00 -1°C° 0 mm 3 mps 761 mmHg 63%
    02:00 -1°C° 0 mm 3 mps 761 mmHg 64%
    03:00 -1°C° 0 mm 3 mps 761 mmHg 66%
    04:00 -1°C° 0 mm 3 mps 761 mmHg 67%
    05:00 -1°C° 0 mm 3 mps 761 mmHg 68%
    06:00 -1°C° 0 mm 3 mps 761 mmHg 70%
    07:00 -1°C° 0 mm 3 mps 761 mmHg 72%
    08:00 -1°C° 0 mm 4 mps 761 mmHg 70%
    09:00 0°C° 0 mm 4 mps 761 mmHg 68%
    10:00 +1°C° 0 mm 4 mps 761 mmHg 66%
    11:00 +3°C° 0 mm 4 mps 760 mmHg 67%
    12:00 +4°C° 0 mm 4 mps 760 mmHg 69%
    13:00 +5°C° 0 mm 4 mps 760 mmHg 70%
    14:00 +5°C° 0 mm 4 mps 760 mmHg 72%
    15:00 +5°C° 0 mm 4 mps 759 mmHg 75%
    16:00 +5°C° 0 mm 4 mps 759 mmHg 77%
    17:00 +4°C° 0 mm 4 mps 759 mmHg 81%
    18:00 +3°C° 0 mm 4 mps 759 mmHg 85%
    19:00 +2°C° 0 mm 3 mps 759 mmHg 89%
    20:00 +2°C° 0 mm 3 mps 759 mmHg 90%
    21:00 +2°C° 0 mm 3 mps 759 mmHg 91%
    22:00 +1°C° 0 mm 3 mps 759 mmHg 93%
    23:00 +1°C° 0 mm 3 mps 759 mmHg 93%

    26 February, Tuesday

    Time Temperature Precipitation Wind Pressure Humidity
    00:00 +1°C° 0 mm 3 mps 759 mmHg 94%
    01:00 0°C° 0 mm 3 mps 759 mmHg 95%
    02:00 0°C° 0 mm 3 mps 758 mmHg 95%
    03:00 0°C° 0 mm 3 mps 758 mmHg 96%
    04:00 -1°C° 0 mm 4 mps 757 mmHg 97%
    05:00 0°C° 0 mm 4 mps 757 mmHg 97%
    06:00 0°C° 0 mm 5 mps 757 mmHg 97%
    07:00 +1°C° 0 mm 5 mps 756 mmHg 98%
    08:00 +1°C° 0.1 mm 5 mps 756 mmHg 96%
    09:00 +1°C° 0.1 mm 5 mps 756 mmHg 95%
    10:00 +2°C° 0.1 mm 5 mps 756 mmHg 94%
    11:00 +2°C° 0 mm 5 mps 755 mmHg 92%
    12:00 +3°C° 0 mm 6 mps 755 mmHg 90%
    13:00 +3°C° 0 mm 6 mps 755 mmHg 88%
    14:00 +4°C° 0 mm 6 mps 755 mmHg 85%
    15:00 +5°C° 0 mm 5 mps 755 mmHg 81%
    16:00 +6°C° 0 mm 5 mps 755 mmHg 78%
    17:00 +5°C° 0 mm 5 mps 756 mmHg 81%
    18:00 +4°C° 0 mm 4 mps 756 mmHg 84%
    19:00 +3°C° 0 mm 4 mps 756 mmHg 87%
    20:00 +3°C° 0 mm 4 mps 756 mmHg 88%
    21:00 +2°C° 0 mm 3 mps 757 mmHg 89%
    22:00 +2°C° 0 mm 3 mps 757 mmHg 90%
    23:00 +1°C° 0 mm 3 mps 757 mmHg 90%

    27 February, Wednesday

    Time Temperature Precipitation Wind Pressure Humidity
    00:00 +2°C° 0 mm 2 mps 757 mmHg 90%
    01:00 +1°C° 0 mm 2 mps 757 mmHg 91%
    02:00 +1°C° 0 mm 2 mps 757 mmHg 90%
    03:00 +1°C° 0 mm 2 mps 757 mmHg 90%
    04:00 +1°C° 0 mm 2 mps 757 mmHg 90%
    05:00 +1°C° 0 mm 2 mps 757 mmHg 89%
    06:00 +1°C° 0 mm 2 mps 757 mmHg 89%
    07:00 +1°C° 0 mm 2 mps 756 mmHg 88%
    08:00 +1°C° 0 mm 3 mps 756 mmHg 84%
    09:00 +3°C° 0 mm 3 mps 756 mmHg 80%
    10:00 +5°C° 0 mm 4 mps 756 mmHg 76%
    11:00 +6°C° 0 mm 4 mps 755 mmHg 72%
    12:00 +7°C° 0 mm 5 mps 754 mmHg 68%
    13:00 +8°C° 0 mm 5 mps 754 mmHg 65%
    14:00 +8°C° 0 mm 5 mps 753 mmHg 64%
    15:00 +8°C° 0 mm 5 mps 752 mmHg 64%
    16:00 +8°C° 0 mm 5 mps 752 mmHg 63%
    17:00 +7°C° 0 mm 5 mps 752 mmHg 67%
    18:00 +6°C° 0 mm 4 mps 752 mmHg 72%
    19:00 +5°C° 0 mm 4 mps 751 mmHg 76%
    20:00 +5°C° 0 mm 4 mps 751 mmHg 78%
    21:00 +4°C° 0 mm 4 mps 751 mmHg 80%
    22:00 +4°C° 0 mm 3 mps 750 mmHg 82%
    23:00 +4°C° 0 mm 4 mps 750 mmHg 83%

    28 February, Thursday

    Time Temperature Precipitation Wind Pressure Humidity
    00:00 +4°C° 0 mm 4 mps 749 mmHg 84%
    01:00 +3°C° 0 mm 4 mps 749 mmHg 84%
    02:00 +3°C° 0 mm 4 mps 748 mmHg 82%
    03:00 +3°C° 0 mm 4 mps 747 mmHg 79%
    04:00 +2°C° 0 mm 5 mps 746 mmHg 76%
    05:00 +2°C° 0 mm 5 mps 746 mmHg 74%
    06:00 +2°C° 0 mm 6 mps 745 mmHg 72%
    07:00 +2°C° 0 mm 6 mps 744 mmHg 70%
    08:00 +4°C° 0 mm 7 mps 744 mmHg 70%
    09:00 +5°C° 0 mm 8 mps 744 mmHg 71%
    10:00 +6°C° 0 mm 9 mps 744 mmHg 71%
    11:00 +6°C° 0 mm 9 mps 743 mmHg 73%
    12:00 +6°C° 0 mm 9 mps 743 mmHg 75%
    13:00 +5°C° 0 mm 10 mps 743 mmHg 76%
    14:00 +5°C° 0 mm 10 mps 743 mmHg 76%
    15:00 +5°C° 0 mm 10 mps 743 mmHg 76%
    16:00 +5°C° 0 mm 9 mps 743 mmHg 76%
    17:00 +5°C° 0 mm 9 mps 743 mmHg 74%
    18:00 +5°C° 0 mm 8 mps 744 mmHg 72%
    19:00 +5°C° 0 mm 8 mps 744 mmHg 70%
    20:00 +4°C° 0 mm 8 mps 744 mmHg 71%
    21:00 +4°C° 0 mm 8 mps 744 mmHg 71%
    22:00 +3°C° 0 mm 7 mps 744 mmHg 72%
    23:00 +2°C° 0 mm 7 mps 744 mmHg 75%
    Show more